1497970800.97,10131,25.0,74468.5,17.95,-14.47,-13.61,0,*46
1497970802.18,10132,25.0,74470.3,17.95,-14.29,-13.23,0,*4B
1497970803.4,10133,25.0,74472.5,17.91,-14.29,-13.01,0,*4E
1497970804.62,10134,25.0,74474.0,17.91,-14.33,-13.01,0,*42
1497970805.85,10135,25.0,74472.8,17.91,-14.51,-13.07,0,*41
1497970807.07,10136,25.0,74472.8,17.91,-14.29,-12.61,0,*4C
1497970808.35,10137,25.0,74474.0,17.89,-14.01,-12.15,0,*4D
1497970809.57,10138,25.0,74472.8,17.89,-13.93,-12.03,0,*49
1497970810.83,10139,25.0,74472.5,17.89,-13.93,-11.93,0,*42
1497970812.08,10140,25.0,74472.5,17.89,-13.93,-11.89,0,*47
1497970813.36,10141,25.0,74474.0,17.89,-14.05,-11.81,0,*46
1497970814.61,10142,25.0,74472.5,17.89,-13.87,-11.45,0,*40
1497970815.85,10143,25.0,74472.3,17.89,-13.65,-11.33,0,*4C
1497970817.14,10144,25.0,74474.3,17.89,-13.61,-11.07,0,*48
1497970818.37,10145,25.0,74474.8,17.87,-14.19,-11.51,0,*4C
1497970819.63,10146,25.0,74470.8,17.87,-13.79,-11.29,0,*41
1497970820.86,10147,25.0,74472.8,17.87,-13.43,-10.71,0,*45
1497970822.09,10148,25.0,74468.0,17.87,-13.65,-10.75,0,*4A
1497970823.32,10149,25.0,74474.8,17.89,-13.19,-10.49,0,*41
1497970824.57,10150,25.0,74474.5,17.91,-12.15,-9.53,0,*7E
1497970825.76,10151,25.0,74470.8,17.95,-12.03,-9.27,0,*7F
1497970826.96,10152,25.0,74472.5,17.95,-11.41,-8.55,0,*7D
1497970828.19,10153,25.0,74474.0,17.97,-11.23,-8.37,0,*7E
1497970829.43,10154,25.0,74468.8,17.99,-10.67,-7.95,0,*71
1497970830.62,10155,25.0,74472.0,18.03,-10.31,-7.53,0,*75
1497970831.84,10156,25.0,74470.3,18.03,-10.05,-7.27,0,*72
1497970833.08,10157,25.0,74470.0,18.11,-9.97,-7.27,0,*43
1497970834.31,10158,25.0,74470.3,18.09,-10.41,-7.83,0,*78
1497970835.53,10159,25.0,74472.8,18.13,-9.93,-7.39,0,*44
1497970836.73,10160,25.0,74470.0,18.17,-10.01,-7.49,0,*7E
1497970837.94,10161,25.0,74468.8,18.21,-9.97,-7.43,0,*47
1497970839.16,10162,25.0,74468.3,18.23,-9.27,-6.85,0,*46
1497970840.36,10163,25.0,74474.3,18.25,-8.67,-6.39,0,*43
1497970841.59,10164,25.0,74470.3,18.27,-8.81,-6.69,0,*4B
1497970842.84,10165,25.0,74474.0,18.29,-9.45,-7.39,0,*49
1497970844.04,10166,25.0,74472.5,18.33,-10.35,-8.37,0,*7F
1497970845.29,10167,25.0,74474.8,18.33,-10.75,-9.11,0,*7F
1497970846.52,10168,25.0,74474.5,18.33,-11.63,-10.05,0,*4B
1497970847.72,10169,25.0,74472.5,18.33,-11.45,-9.97,0,*7D
1497970849.0,10170,25.0,74470.3,18.31,-10.67,-9.11,0,*78
1497970850.22,10171,25.0,74474.3,18.33,-10.41,-8.89,0,*7F
1497970851.44,10172,25.0,74470.0,18.35,-9.27,-7.87,0,*43
1497970852.66,10173,25.0,74472.5,18.37,-8.75,-7.49,0,*44
1497970853.85,10174,25.0,74468.8,18.43,-8.21,-6.89,0,*4C
1497970855.04,10175,25.0,74470.3,18.43,-8.17,-7.15,0,*4C
1497970856.25,10176,25.0,74474.8,18.47,-7.69,-6.69,0,*47
1497970857.49,10177,25.0,74470.3,18.49,-7.99,-7.19,0,*41
1497970858.72,10178,25.0,74470.5,18.53,-7.39,-6.73,0,*42
1497970859.93,10179,25.0,74470.0,18.55,-7.39,-6.85,0,*4C
1497970861.14,10180,25.0,74468.5,18.59,-7.15,-6.93,0,*4F
1497970862.33,10181,25.0,74472.8,18.63,-6.69,-6.47,0,*44
1497970863.55,10182,25.0,74472.3,18.65,-6.55,-6.43,0,*4A
1497970864.75,10183,25.0,74474.5,18.69,-6.51,-6.69,0,*4B
1497970865.94,10184,25.0,74470.3,18.73,-6.55,-6.85,0,*41
1497970867.21,10185,25.0,74474.3,18.75,-7.35,-7.95,0,*41
1497970868.41,10186,25.0,74470.5,18.77,-8.85,-9.79,0,*48
1497970869.66,10187,25.0,74472.0,18.77,-9.53,-10.75,0,*77
1497970870.89,10188,25.0,74468.8,18.77,-9.61,-11.01,0,*7B
1497970872.12,10189,25.0,74472.8,18.75,-10.35,-12.03,0,*40
1497970873.33,10190,25.0,74474.0,18.73,-10.31,-12.21,0,*4A
1497970874.55,10191,25.0,74472.0,18.73,-9.97,-11.97,0,*71
1497970875.82,10192,25.0,74470.3,18.71,-9.61,-11.77,0,*77
1497970877.09,10193,25.0,74472.0,18.71,-9.61,-11.93,0,*7C
1497970878.34,10194,25.0,74472.0,18.73,-9.83,-12.35,0,*7A
1497970879.57,10195,25.0,74472.5,18.71,-10.57,-13.23,0,*4E
1497970880.8,10196,25.0,74468.8,18.67,-10.97,-13.97,0,*49
1497970882.05,10197,25.0,74468.5,18.67,-10.71,-13.83,0,*45
1497970883.25,10198,25.0,74468.8,18.63,-10.89,-14.15,0,*41
1497970884.48,10199,25.0,74474.0,18.63,-10.67,-14.11,0,*44
1497970885.7,10200,25.0,74474.3,18.59,-10.53,-14.05,0,*4C
1497970886.95,10201,25.0,74472.8,18.57,-10.85,-14.55,0,*4D
1497970888.2,10202,25.0,74470.8,18.57,-10.57,-14.43,0,*46
1497970889.43,10203,25.0,74474.0,18.57,-10.45,-14.37,0,*47
1497970890.68,10204,25.0,74472.8,18.53,-10.45,-14.47,0,*43
1497970891.96,10205,25.0,74472.5,18.53,-10.67,-14.97,0,*4F
1497970893.23,10206,25.0,74468.0,18.53,-10.79,-15.01,0,*4D
1497970894.49,10207,25.0,74470.0,18.49,-10.67,-15.07,0,*4E
1497970895.75,10208,25.0,74470.8,18.49,-10.75,-15.29,0,*4E
1497970897.01,10209,25.0,74472.8,18.49,-10.57,-15.21,0,*47
1497970898.26,10210,25.0,74474.8,18.47,-10.75,-15.43,0,*45
1497970899.48,10211,25.0,74470.3,18.45,-11.01,-15.99,0,*43
1497970900.73,10212,25.0,74470.5,18.45,-11.19,-16.13,0,*48
1497970901.98,10213,25.0,74472.8,18.45,-10.71,-15.63,0,*42
1497970903.24,10214,25.0,74468.5,18.41,-11.51,-16.55,0,*44
1497970904.49,10215,25.0,74468.0,18.41,-11.81,-16.97,0,*46
1497970905.71,10216,25.0,74472.5,18.35,-12.03,-17.31,0,*42
1497970906.98,10217,25.0,74468.0,18.35,-11.89,-17.17,0,*46
1497970908.24,10218,25.0,74468.5,18.31,-12.07,-17.35,0,*48
1497970909.49,10219,25.0,74472.3,18.31,-12.61,-17.87,0,*40
1497970910.75,10220,25.0,74474.8,18.27,-12.83,-18.07,0,*46
1497970912.01,10221,25.0,74472.5,18.27,-12.25,-17.41,0,*46
1497970913.25,10222,25.0,74470.0,18.25,-12.11,-17.35,0,*43
1497970914.5,10223,25.0,74472.0,18.23,-12.43,-17.59,0,*49
1497970915.75,10224,25.0,74470.0,18.21,-12.65,-17.93,0,*4E
1497970916.98,10225,25.0,74468.3,18.19,-13.07,-18.17,0,*42
1497970918.23,10226,25.0,74470.3,18.19,-12.65,-17.73,0,*49
1497970919.49,10227,25.0,74474.5,18.13,-13.33,-18.31,0,*49
1497970920.7,10228,25.0,74474.5,18.13,-12.97,-17.69,0,*4B
1497970921.98,10229,25.0,74470.5,18.11,-12.57,-17.25,0,*4C
1497970923.21,10230,25.0,74468.0,18.09,-12.47,-17.03,0,*48
1497970924.47,10231,25.0,74468.5,18.09,-12.79,-17.17,0,*41
1497970925.73,10232,25.0,74472.3,18.09,-13.01,-17.41,0,*4F
1497970926.99,10233,25.0,74468.0,18.07,-13.07,-17.17,0,*45
1497970928.25,10234,25.0,74472.5,18.07,-13.11,-17.07,0,*44
1497970929.49,10235,25.0,74466.8,18.05,-12.79,-16.55,0,*4E
1497970930.74,10236,25.0,74470.3,18.05,-12.71,-16.31,0,*47
1497970931.99,10237,25.0,74470.8,18.03,-12.83,-16.31,0,*4D
1497970933.24,10238,25.0,74470.8,18.03,-13.29,-16.65,0,*42
1497970934.49,10239,25.0,74468.3,18.01,-13.33,-16.41,0,*4C
1497970935.74,10240,25.0,74470.3,18.03,-13.29,-16.23,0,*4F
1497970937.02,10241,25.0,74468.5,18.01,-13.37,-16.13,0,*40
1497970938.27,10242,25.06,74472.8,18.01,-13.47,-16.13,0,*44
1497970939.52,10243,25.0,74470.0,17.99,-13.87,-16.27,0,*40
1497970940.74,10244,25.0,74470.0,17.99,-13.93,-16.27,0,*42
1497970941.97,10245,25.0,74470.3,17.99,-14.23,-16.27,0,*4F
1497970943.24,10246,25.0,74470.8,17.97,-14.83,-16.75,0,*4F
1497970944.44,10247,25.0,74472.0,17.95,-14.89,-16.59,0,*48
1497970945.67,10248,25.0,74468.0,17.91,-14.33,-15.81,0,*44
1497970946.93,10249,25.0,74470.8,17.91,-14.51,-15.81,0,*41
1497970948.15,10250,25.0,74470.3,17.91,-14.15,-15.29,0,*4B
1497970949.39,10251,25.0,74470.8,17.91,-14.51,-15.49,0,*4C
1497970950.59,10252,25.0,74470.3,17.87,-14.65,-15.53,0,*44
1497970951.84,10253,25.0,74468.5,17.89,-14.93,-15.63,0,*41
1497970953.1,10254,25.0,74470.3,17.87,-14.93,-15.39,0,*47
1497970954.33,10255,25.0,74470.0,17.87,-15.11,-15.39,0,*4D
1497970955.55,10256,25.0,74468.0,17.85,-15.11,-15.11,0,*46
1497970956.83,10257,25.0,74468.8,17.85,-14.43,-14.43,0,*47
1497970958.08,10258,25.0,74468.0,17.85,-14.93,-14.65,0,*41
1497970959.33,10259,25.0,74468.0,17.85,-14.55,-14.11,0,*49
1497970960.57,10260,25.0,74468.3,17.83,-14.83,-14.15,0,*4A
1497970961.79,10261,25.0,74468.3,17.83,-14.83,-14.11,0,*4F
1497970962.98,10262,25.0,74468.0,17.83,-14.61,-13.73,0,*43
1497970964.23,10263,25.0,74470.3,17.83,-14.83,-13.83,0,*41
1497970965.48,10264,25.0,74468.8,17.83,-14.55,-13.37,0,*42
1497970966.71,10265,25.0,74470.8,17.85,-14.65,-13.19,0,*4A
1497970967.93,10266,25.0,74468.5,17.83,-15.01,-13.55,0,*44
1497970969.12,10267,25.0,74470.3,17.83,-14.69,-12.89,0,*4A
1497970970.39,10268,25.0,74468.0,17.85,-14.19,-12.35,0,*43
1497970971.65,10269,25.0,74468.0,17.83,-14.01,-12.11,0,*4B
1497970972.9,10270,25.0,74470.8,17.85,-13.69,-11.81,0,*46
1497970974.11,10271,25.0,74468.3,17.87,-13.19,-11.15,0,*4F
1497970975.33,10272,25.0,74468.5,17.89,-13.15,-10.97,0,*45
1497970976.56,10273,25.06,74470.3,17.91,-12.65,-10.35,0,*43
1497970977.82,10274,25.0,74470.5,17.95,-13.01,-10.75,0,*47
1497970979.03,10275,25.0,74468.0,17.95,-13.23,-10.89,0,*45
1497970980.26,10276,25.06,74468.8,17.99,-12.53,-10.01,0,*4C
1497970981.54,10277,25.0,74470.5,18.01,-13.37,-11.07,0,*47
1497970982.77,10278,25.0,74468.5,18.01,-13.51,-11.19,0,*47
1497970984.05,10279,25.06,74468.8,18.01,-13.33,-11.07,0,*4D
1497970985.28,10280,25.0,74468.8,18.03,-13.43,-11.07,0,*4E
1497970986.48,10281,25.06,74474.0,18.03,-13.47,-11.19,0,*44
1497970987.72,10282,25.0,74468.0,18.05,-14.11,-11.73,0,*49
1497970988.95,10283,25.06,74468.8,18.05,-14.11,-11.85,0,*41
1497970990.18,10284,25.0,74468.0,18.05,-13.93,-11.73,0,*42
1497970991.42,10285,25.0,74468.3,18.05,-12.53,-10.31,0,*49
1497970992.7,10286,25.0,74468.5,18.07,-11.67,-9.45,0,*77
1497970993.98,10287,25.06,74474.3,18.07,-11.67,-9.61,0,*70
1497970995.21,10288,25.0,74470.3,18.09,-11.73,-9.75,0,*71
1497970996.43,10289,25.06,74472.0,18.11,-8.71,-6.85,0,*43
1497970997.67,10290,25.0,74468.0,18.13,-12.21,-10.41,0,*48
1497970998.91,10291,25.0,74468.0,18.17,-12.43,-10.75,0,*4E
1497971000.14,10292,25.06,74472.0,18.13,-12.97,-11.37,0,*47
1497971001.38,10293,25.0,74468.3,18.17,-13.23,-11.67,0,*49
1497971002.64,10294,25.0,74470.0,18.13,-12.61,-11.07,0,*4B
1497971003.89,10295,25.0,74468.0,18.13,-12.71,-11.33,0,*4C
1497971005.12,10296,25.06,74468.0,18.17,-11.85,-10.45,0,*43
1497971006.32,10297,25.06,74468.8,18.17,-11.15,-9.89,0,*73
1497971007.55,10298,25.0,74470.5,18.17,-10.75,-9.67,0,*7B
1497971008.82,10299,25.0,74468.0,18.19,-11.07,-10.01,0,*48
1497971010.04,10300,25.0,74470.5,18.21,-11.67,-10.85,0,*48
1497971011.27,10301,25.0,74470.0,18.21,-12.47,-11.77,0,*44
1497971012.5,10302,25.0,74470.3,18.21,-12.39,-11.67,0,*4F
1497971013.77,10303,25.0,74468.3,18.19,-12.21,-11.63,0,*48
1497971015.03,10304,25.06,74468.8,18.19,-12.03,-11.63,0,*4F
1497971016.29,10305,25.0,74470.5,18.17,-11.67,-11.55,0,*44
1497971017.55,10306,25.0,74466.3,18.13,-11.73,-11.63,0,*43
1497971018.8,10307,25.0,74470.5,18.13,-11.73,-11.59,0,*4B
1497971020.05,10308,25.06,74472.5,18.13,-11.73,-11.77,0,*48
1497971021.3,10309,25.0,74466.3,18.13,-11.37,-11.51,0,*4D
1497971022.56,10310,25.06,74470.3,18.13,-11.33,-11.59,0,*49
1497971023.79,10311,25.0,74470.8,18.11,-11.15,-11.45,0,*43
1497971025.07,10312,25.0,74470.8,18.11,-11.07,-11.51,0,*46
1497971026.35,10313,25.0,74464.8,18.11,-11.07,-11.51,0,*47
1497971027.56,10314,25.06,74470.0,18.09,-11.23,-12.03,0,*4B
1497971028.79,10315,25.0,74470.5,18.09,-10.93,-11.77,0,*40
1497971030.03,10316,25.06,74470.0,18.09,-11.11,-11.93,0,*42
1497971031.28,10317,25.06,74468.3,18.07,-9.49,-9.93,0,*40
1497971032.49,10318,25.06,74468.0,18.05,-6.63,-4.99,0,*4D
1497971033.7,10319,25.0,74468.3,18.05,-8.85,-9.75,0,*45
1497971034.89,10320,25.06,74468.3,18.05,-10.05,-11.45,0,*44
1497971036.12,10321,25.06,74470.0,18.03,-10.45,-11.85,0,*4B
1497971037.35,10322,25.06,74470.5,18.03,-10.35,-11.77,0,*42
1497971038.57,10323,25.06,74468.0,18.03,-10.09,-11.63,0,*49
1497971039.79,10324,25.0,74470.5,18.03,-9.83,-11.45,0,*70
1497971041.03,10325,25.0,74468.8,18.01,-9.89,-11.63,0,*7D
1497971042.25,10326,25.06,74470.8,17.99,-10.01,-11.63,0,*48
1497971043.46,10327,25.0,74468.5,17.99,-9.57,-11.23,0,*76
1497971044.67,10328,25.0,74470.5,17.99,-9.57,-11.23,0,*79
1497971045.89,10329,25.0,74470.5,17.99,-9.97,-11.63,0,*70
1497971047.15,10330,25.0,74468.3,17.97,-9.71,-11.29,0,*70
1497971048.39,10331,25.0,74470.5,17.97,-9.75,-11.29,0,*75
1497971049.62,10332,25.0,74468.5,17.95,-10.09,-11.55,0,*4C
1497971050.81,10333,25.0,74470.0,17.91,-10.01,-11.45,0,*40
1497971052.04,10334,25.06,74474.0,17.91,-10.15,-11.55,0,*43
1497971053.23,10335,25.06,74468.0,17.87,-9.89,-11.23,0,*79
1497971054.43,10336,25.06,74468.0,17.87,-9.31,-10.53,0,*7F
1497971055.67,10337,25.06,74470.0,17.87,-9.23,-10.41,0,*7E
1497971056.9,10338,25.0,74466.3,17.87,-9.31,-10.41,0,*72
1497971058.13,10339,25.0,74468.8,17.85,-9.23,-10.05,0,*72
1497971059.31,10340,25.0,74468.0,17.83,-8.97,-9.89,0,*48
1497971060.57,10341,25.0,74468.3,17.85,-8.93,-9.83,0,*41
1497971061.76,10342,25.06,74468.8,17.83,-9.23,-10.05,0,*78
1497971062.98,10343,25.06,74470.5,17.83,-9.15,-9.89,0,*40
1497971064.17,10344,25.06,74470.3,17.83,-9.23,-9.89,0,*42
1497971065.41,10345,25.06,74468.0,17.79,-8.81,-9.57,0,*4C
1497971066.61,10346,25.06,74470.8,17.79,-8.55,-9.05,0,*41
1497971067.81,10347,25.06,74470.3,17.79,-8.63,-9.23,0,*41
1497971069.03,10348,25.06,74468.8,17.77,-8.29,-8.89,0,*4F
1497971070.27,10349,25.06,74470.0,17.77,-8.07,-8.63,0,*46
1497971071.49,10350,25.06,74468.5,17.77,-8.21,-8.75,0,*4D
1497971072.73,10351,25.06,74468.3,17.77,-7.99,-8.67,0,*43
1497971073.97,10352,25.06,74470.0,17.77,-7.73,-8.29,0,*4E
1497971075.16,10353,25.06,74468.5,17.75,-7.49,-8.29,0,*44
1497971076.37,10354,25.06,74468.8,17.75,-7.19,-7.87,0,*4D
1497971077.59,10355,25.06,74468.0,17.75,-6.97,-7.87,0,*4B
1497971078.84,10356,25.06,74468.8,17.73,-6.89,-7.91,0,*46
1497971080.05,10357,25.0,74464.8,17.69,-6.85,-7.91,0,*40
1497971081.27,10358,25.06,74468.3,17.69,-6.47,-7.65,0,*4A
1497971082.49,10359,25.06,74468.0,17.69,-6.59,-7.91,0,*4F
1497971083.73,10360,25.0,74466.5,17.69,-6.19,-7.57,0,*4B
1497971084.98,10361,25.06,74468.5,17.69,-5.93,-7.43,0,*4E
1497971086.22,10362,25.06,74470.0,17.69,-5.69,-7.35,0,*49
1497971087.47,10363,25.06,74468.3,17.67,-5.55,-7.27,0,*4A
1497971088.69,10364,25.06,74470.8,17.65,-5.27,-7.23,0,*4E
1497971089.94,10365,25.06,74468.8,17.67,-4.93,-7.01,0,*43
1497971091.2,10366,25.06,74468.0,17.67,-4.77,-7.01,0,*4A
1497971092.41,10367,25.06,74468.3,17.65,-4.49,-6.97,0,*4A
1497971093.63,10368,25.06,74470.3,17.65,-4.33,-6.97,0,*48
1497971094.83,10369,25.06,74470.3,17.65,-4.25,-7.19,0,*49
1497971096.03,10370,25.0,74464.8,17.69,-3.95,-7.11,0,*49
1497971097.25,10371,25.0,74464.0,17.65,-3.47,-6.85,0,*47
1497971098.5,10372,25.06,74470.8,17.63,-3.03,-6.63,0,*4A
1497971099.71,10373,25.06,74468.8,17.63,-2.79,-6.69,0,*4D
1497971100.92,10374,25.06,74468.8,17.65,-2.59,-6.69,0,*4E
1497971102.19,10375,25.06,74468.8,17.67,-1.99,-6.27,0,*48
1497971103.41,10376,25.06,74468.8,17.65,-1.43,-6.01,0,*4A
1497971104.61,10377,25.06,74470.3,17.67,-0.19,-4.99,0,*74
1497971105.82,10378,25.06,74470.3,17.75,0.33,-4.61,0,*5A
1497971107.06,10379,25.06,74470.0,17.75,0.51,-4.69,0,*57
1497971108.3,10380,25.06,74470.0,17.77,0.83,-4.57,0,*51
1497971109.53,10381,25.06,74468.3,17.79,0.87,-4.93,0,*52
1497971110.8,10382,25.06,74466.5,17.85,1.09,-4.81,0,*66
1497971112.05,10383,25.06,74468.8,17.87,1.33,-4.73,0,*61
1497971113.32,10384,25.06,74470.0,17.89,1.55,-4.69,0,*63
1497971114.53,10385,25.06,74468.0,17.95,1.89,-4.57,0,*63
1497971115.77,10386,25.06,74468.8,17.99,1.55,-5.27,0,*6B
1497971117.01,10387,25.06,74466.8,17.99,1.71,-5.31,0,*6B
1497971118.2,10388,25.06,74468.0,18.03,1.83,-5.35,0,*61
1497971119.44,10389,25.06,74466.3,18.07,1.75,-5.61,0,*6C
1497971120.67,10390,25.06,74468.8,18.09,1.93,-5.55,0,*65
1497971121.93,10391,25.0,74464.8,18.11,1.85,-5.77,0,*6A
1497971123.18,10392,25.06,74468.0,18.17,1.97,-5.85,0,*61
1497971124.45,10393,25.06,74470.0,18.19,2.09,-5.81,0,*6E
1497971125.68,10394,25.06,74470.3,18.23,2.09,-5.97,0,*67
1497971126.9,10395,25.06,74468.0,18.25,2.09,-6.05,0,*68
1497971128.08,10396,25.06,74468.0,18.29,1.83,-6.59,0,*6F
1497971129.32,10397,25.0,74464.8,18.31,1.59,-6.85,0,*61
1497971130.55,10398,25.06,74470.5,18.33,1.25,-7.27,0,*6E
1497971131.83,10399,25.06,74468.8,18.37,1.17,-7.61,0,*68
1497971133.06,10400,25.06,74468.8,18.37,0.95,-7.87,0,*5C
1497971134.29,10401,25.06,74468.8,18.41,0.75,-8.25,0,*55
1497971135.5,10402,25.06,74470.0,18.45,0.75,-8.33,0,*55
1497971136.7,10403,25.06,74466.5,18.47,0.95,-8.17,0,*5E
1497971137.91,10404,25.06,74466.5,18.49,0.67,-8.67,0,*5D
1497971139.11,10405,25.06,74470.3,18.51,0.59,-8.89,0,*58
1497971140.31,10406,25.06,74466.3,18.51,0.29,-9.27,0,*59
1497971141.52,10407,25.06,74464.8,18.53,-0.29,-9.97,0,*7C
1497971142.7,10408,25.06,74464.8,18.55,-0.29,-10.05,0,*46
1497971143.9,10409,25.06,74468.5,18.55,-0.19,-10.05,0,*44
1497971145.1,10410,25.0,74464.8,18.59,-0.27,-9.97,0,*7E
1497971146.33,10411,25.06,74468.3,18.57,-0.37,-10.15,0,*42
1497971147.53,10412,25.06,74464.8,18.59,-0.57,-10.49,0,*40
1497971148.75,10413,25.06,74464.8,18.65,-0.45,-10.31,0,*42
1497971150.0,10414,25.06,74466.8,18.65,-1.05,-10.93,0,*78
1497971151.27,10415,25.06,74470.8,18.65,-1.83,-11.89,0,*7D
1497971152.52,10416,25.06,74468.3,18.65,-1.67,-11.85,0,*78
1497971153.74,10417,25.06,74464.5,18.67,-2.07,-12.21,0,*73
1497971155.01,10418,25.06,74466.5,18.65,-1.95,-11.89,0,*77
1497971156.21,10419,25.06,74466.0,18.67,-2.27,-12.25,0,*7B
1497971157.45,10420,25.06,74470.3,18.67,-1.99,-11.97,0,*7D
1497971158.7,10421,25.06,74468.8,18.67,-1.87,-11.85,0,*70
1497971159.95,10422,25.06,74464.8,18.67,-1.87,-11.67,0,*7F
1497971161.2,10423,25.06,74466.8,18.69,-1.43,-11.29,0,*72
1497971162.43,10424,25.06,74470.5,18.69,-1.39,-11.01,0,*72
1497971163.67,10425,25.06,74464.5,18.71,-1.29,-10.97,0,*75
1497971164.92,10426,25.06,74468.3,18.71,-1.13,-10.53,0,*77
1497971166.18,10427,25.06,74466.8,18.75,-1.17,-10.63,0,*75
1497971167.41,10428,25.06,74466.0,18.77,-1.01,-10.31,0,*78
1497971168.69,10429,25.06,74464.3,18.79,-1.09,-10.41,0,*78
1497971169.94,10430,25.06,74468.8,18.81,-1.35,-10.79,0,*73
1497971171.18,10431,25.06,74468.0,18.87,-1.17,-10.57,0,*78
1497971172.43,10432,25.06,74464.3,18.91,-1.35,-10.57,0,*7C
1497971173.66,10433,25.06,74464.8,18.91,-1.71,-10.97,0,*71
1497971174.88,10434,25.06,74466.3,18.93,-1.67,-10.79,0,*73
1497971176.13,10435,25.06,74468.0,18.95,-1.63,-10.71,0,*78
1497971177.33,10436,25.06,74468.0,18.97,-1.71,-10.89,0,*7D
1497971178.55,10437,25.06,74464.8,18.99,-1.75,-10.85,0,*7A
1497971179.77,10438,25.06,74466.5,18.99,-2.35,-11.41,0,*7B
1497971181.01,10439,25.06,74468.8,19.01,-2.91,-11.97,0,*7F
1497971182.23,10440,25.06,74466.3,19.03,-2.83,-11.81,0,*77
1497971183.48,10441,25.06,74466.0,19.03,-2.63,-11.73,0,*75
1497971184.73,10442,25.06,74466.3,19.09,-2.39,-11.29,0,*7C
1497971186.01,10443,25.06,74464.8,19.09,-2.63,-11.63,0,*7C
1497971187.23,10444,25.06,74468.0,19.11,-2.79,-11.55,0,*7C
1497971188.48,10445,25.06,74466.0,19.11,-2.63,-11.37,0,*72
1497971189.7,10446,25.06,74466.5,19.15,-3.07,-11.89,0,*73
1497971190.95,10447,25.06,74466.3,19.17,-3.11,-11.85,0,*7B
1497971192.22,10448,25.06,74464.8,19.17,-3.43,-12.11,0,*7D
1497971193.47,10449,25.06,74466.3,19.17,-3.07,-11.73,0,*7B
1497971194.72,10450,25.06,74466.3,19.21,-3.35,-11.89,0,*72
1497971195.97,10451,25.06,74464.3,19.21,-3.27,-11.89,0,*70
1497971197.24,10452,25.06,74466.0,19.25,-3.55,-11.97,0,*7D
1497971198.51,10453,25.06,74470.0,19.25,-3.55,-11.89,0,*73
1497971199.75,10454,25.06,74464.0,19.31,-3.51,-11.81,0,*7D
1497971200.95,10455,25.06,74466.3,19.31,-3.91,-12.29,0,*71
1497971202.2,10456,25.06,74464.5,19.35,-3.87,-12.15,0,*7E
1497971203.47,10457,25.06,74466.8,19.35,-3.47,-11.77,0,*74
1497971204.7,10458,25.06,74470.0,19.35,-3.95,-12.25,0,*70
1497971205.93,10459,25.06,74464.3,19.39,-4.05,-12.25,0,*73
1497971207.17,10460,25.06,74464.0,19.39,-4.69,-12.97,0,*7A
1497971208.4,10461,25.06,74466.0,19.39,-4.29,-12.43,0,*76
1497971209.68,10462,25.06,74462.8,19.43,-3.59,-11.63,0,*79
1497971210.93,10463,25.06,74466.5,19.43,-4.13,-12.11,0,*77
1497971212.16,10464,25.06,74468.5,19.47,-4.33,-12.29,0,*7D
1497971213.4,10465,25.06,74464.8,19.47,-4.61,-12.83,0,*7B
1497971214.6,10466,25.06,74466.3,19.49,-4.45,-12.47,0,*78
1497971215.8,10467,25.06,74466.3,19.53,-4.29,-12.29,0,*70
1497971216.99,10468,25.06,74468.3,19.53,-4.41,-12.43,0,*7D
1497971218.24,10469,25.06,74466.0,19.55,-4.37,-12.35,0,*7A
1497971219.48,10470,25.06,74468.0,19.57,-4.73,-12.79,0,*78
1497971220.7,10471,25.06,74466.0,19.57,-5.27,-13.23,0,*77
1497971221.94,10472,25.06,74464.0,19.59,-5.35,-13.29,0,*73
1497971223.13,10473,25.06,74466.0,19.61,-5.43,-13.43,0,*74
1497971224.32,10474,25.06,74464.3,19.61,-5.47,-13.47,0,*73
1497971225.51,10475,25.06,74464.3,19.61,-6.01,-14.11,0,*77
1497971226.75,10476,25.06,74466.5,19.63,-6.19,-14.29,0,*74
1497971227.98,10477,25.06,74464.3,19.65,-6.13,-14.23,0,*73
1497971229.19,10478,25.06,74462.8,19.63,-6.05,-13.93,0,*71
1497971230.47,10479,25.06,74466.5,19.65,-5.93,-13.61,0,*77
1497971231.72,10480,25.06,74464.8,19.65,-6.27,-14.15,0,*79
1497971232.95,10481,25.06,74464.0,19.67,-6.05,-13.61,0,*7E
1497971234.17,10482,25.06,74466.5,19.69,-6.01,-13.51,0,*74
1497971235.36,10483,25.06,74466.5,19.67,-6.09,-13.69,0,*78
1497971236.58,10484,25.06,74464.8,19.71,-6.31,-13.87,0,*73
1497971237.83,10485,25.06,74462.5,19.71,-6.63,-14.05,0,*78
1497971239.02,10486,25.06,74464.0,19.75,-6.39,-13.73,0,*76
1497971240.23,10487,25.06,74466.5,19.75,-6.27,-13.47,0,*7F
1497971241.43,10488,25.06,74464.3,19.75,-6.81,-14.15,0,*7C
1497971242.66,10489,25.06,74466.0,19.75,-6.81,-13.97,0,*70
1497971243.87,10490,25.06,74466.3,19.77,-6.47,-13.47,0,*7D
1497971245.08,10491,25.06,74466.5,19.77,-6.69,-13.69,0,*7C
1497971246.31,10492,25.06,74466.8,19.81,-6.55,-13.55,0,*76
1497971247.55,10493,25.06,74466.8,19.81,-6.51,-13.19,0,*7B
1497971248.77,10494,25.06,74466.8,19.83,-6.85,-13.61,0,*78
1497971249.99,10495,25.06,74466.5,19.83,-7.11,-13.87,0,*7D
1497971251.2,10496,25.06,74466.5,19.85,-7.49,-14.11,0,*7D
1497971252.45,10497,25.06,74468.0,19.89,-8.17,-14.93,0,*7E
1497971253.73,10498,25.06,74466.8,19.85,-9.37,-16.13,0,*74
1497971254.98,10499,25.06,74462.8,19.85,-9.15,-15.75,0,*76
1497971256.25,10500,25.06,74464.0,19.81,-9.11,-15.53,0,*73
1497971257.46,10501,25.06,74462.5,19.85,-8.59,-14.69,0,*73
1497971258.69,10502,25.06,74466.8,19.81,-8.75,-14.69,0,*7A
1497971259.96,10503,25.06,74464.0,19.81,-8.81,-14.93,0,*75
1497971261.18,10504,25.06,74466.8,19.81,-8.29,-14.19,0,*72
1497971262.44,10505,25.06,74460.8,19.81,-7.61,-13.19,0,*77
1497971263.67,10506,25.06,74460.3,19.83,-7.57,-13.15,0,*7F
1497971264.87,10507,25.06,74464.0,19.83,-7.83,-13.19,0,*7B
1497971266.11,10508,25.06,74464.5,19.85,-7.77,-13.15,0,*75
1497971267.33,10509,25.06,74464.0,19.85,-7.87,-13.15,0,*7B
1497971268.54,10510,25.06,74464.3,19.85,-8.21,-13.55,0,*74
1497971269.78,10511,25.06,74466.8,19.85,-8.33,-13.83,0,*7D
1497971271.03,10512,25.06,74464.3,19.85,-8.55,-13.83,0,*7E
1497971272.23,10513,25.06,74464.8,19.83,-8.85,-14.15,0,*7C
1497971273.46,10514,25.06,74462.5,19.81,-8.97,-14.19,0,*76
1497971274.68,10515,25.06,74464.5,19.81,-8.67,-13.69,0,*78
1497971275.89,10516,25.06,74464.3,19.77,-8.59,-13.73,0,*74
1497971277.15,10517,25.06,74464.3,19.77,-8.85,-14.01,0,*76
1497971278.34,10518,25.06,74466.8,19.71,-8.17,-13.07,0,*75
1497971279.54,10519,25.06,74462.5,19.71,-7.53,-12.43,0,*7A
1497971280.76,10520,25.06,74464.3,19.71,-7.39,-12.29,0,*70
1497971281.99,10521,25.06,74464.3,19.67,-7.19,-11.89,0,*7D
1497971283.22,10522,25.06,74464.3,19.67,-6.81,-11.67,0,*7E
1497971284.45,10523,25.06,74464.0,19.67,-6.55,-11.55,0,*77
1497971285.66,10524,25.06,74464.3,19.63,-6.05,-10.93,0,*7A
1497971286.95,10525,25.06,74464.8,19.65,-5.89,-10.75,0,*72
1497971288.17,10526,25.06,74466.0,19.63,-5.55,-10.49,0,*79
1497971289.42,10527,25.06,74466.0,19.63,-5.27,-10.27,0,*75
1497971290.65,10528,25.06,74466.0,19.61,-5.23,-10.27,0,*7C
1497971291.89,10529,25.06,74464.8,19.59,-4.73,-9.79,0,*41
1497971293.14,10530,25.06,74464.3,19.59,-5.03,-10.15,0,*7D
1497971294.38,10531,25.06,74466.0,19.59,-4.73,-9.79,0,*48
1497971295.59,10532,25.06,74468.3,19.55,-4.49,-9.93,0,*4A
1497971296.84,10533,25.06,74466.5,19.55,-4.21,-9.53,0,*49
1497971298.1,10534,25.06,74466.0,19.55,-3.71,-9.15,0,*4E
1497971299.3,10535,25.06,74464.3,19.49,-4.17,-9.75,0,*43
1497971300.5,10536,25.06,74464.0,19.49,-3.35,-9.01,0,*44
1497971301.7,10537,25.06,74466.5,19.49,-3.11,-8.89,0,*42
1497971302.92,10538,25.06,74468.5,19.49,-2.99,-8.81,0,*44
1497971304.11,10539,25.06,74468.5,19.49,-3.23,-9.19,0,*45
1497971305.34,10540,25.06,74466.0,19.47,-2.67,-8.55,0,*4D